Quillayute, WA
on Saturday, January 19, 2013

Saturday
Previous Day Next Day
Daily Summary
 ActualAverageRecord
Temperature
Mean Temperature °F 42°F  
Max Temperature 56°F 47°F 62°F (1981)
Min Temperature 25°F 36°F 18°F (1984)
Degree Days
Heating Degree Days 24 23  
Month to date heating degree days 449  
Since 1 July heating degree days 2927  
Cooling Degree Days 0 0  
Month to date cooling degree days 0  
Year to date cooling degree days 0  
Moisture
Dew Point 31°F   
Average Humidity 87    
Maximum Humidity 100    
Minimum Humidity 50    
Precipitation
Precipitation 0.00 in 0.48 in 3.26 in (1968)
Month to date precipitation 9.24  
Year to date precipitation 9.24  
Wind
Wind Speed 2 mph   
Max Wind Speed 7 mph   
Max Gust Speed 13 mph   
Visibility 4 miles   
Events     

Key: T is trace of precipitation, MM is missing value
Source: NWS Daily Summary
Time(PST)TemperatureDew PointHumidity Pressure Visibility Wind DirectionWind SpeedGust SpeedPrecipitationEvents Conditions
12:01 AM 28.4°F 28.4°F 100% 30.27 in 2.0 miles Calm Calm - N/A   Clear
12:07 AM 28.4°F 28.4°F 100% 30.27 in 0.8 miles Calm Calm - N/A   Clear
12:17 AM 28.4°F 26.6°F 93% 30.27 in 1.5 miles Calm Calm - N/A   Clear
12:24 AM 28.4°F 28.4°F 100% 30.27 in 2.5 miles Calm Calm - N/A   Clear
12:39 AM 28.4°F 26.6°F 93% 30.27 in 1.8 miles Calm Calm - N/A   Clear
12:49 AM 28.4°F 26.6°F 93% 30.27 in 2.5 miles Calm Calm - N/A   Clear
12:53 AM 28.9°F 28.0°F 96% 30.28 in 1.8 miles Calm Calm - N/A   Clear
1:01 AM 28.4°F 28.4°F 100% 30.27 in 1.2 miles Calm Calm - N/A   Clear
1:05 AM 28.4°F 26.6°F 93% 30.27 in 2.5 miles Calm Calm - N/A   Clear
1:29 AM 28.4°F 26.6°F 93% 30.27 in 4.0 miles Calm Calm - N/A   Clear
1:53 AM 28.0°F 27.0°F 96% 30.28 in 4.0 miles Calm Calm - N/A   Clear
2:53 AM 30.0°F 28.9°F 96% 30.29 in 5.0 miles Calm Calm - N/A   Clear
3:53 AM 30.0°F 28.0°F 92% 30.28 in 5.0 miles Calm Calm - N/A   Clear
4:53 AM 28.0°F 27.0°F 96% 30.28 in 4.0 miles North 3.5 mph - N/A   Clear
5:53 AM 28.0°F 27.0°F 96% 30.27 in 5.0 miles Calm Calm - N/A   Clear
6:53 AM 30.0°F 28.9°F 96% 30.27 in 5.0 miles Calm Calm - N/A   Clear
7:51 AM 26.6°F 24.8°F 93% 30.27 in 2.0 miles Calm Calm - N/A   Clear
7:53 AM 26.1°F 24.1°F 92% 30.28 in 2.0 miles Calm Calm - N/A   Clear
8:25 AM 28.4°F 26.6°F 93% 30.28 in 3.0 miles Calm Calm - N/A   Clear
8:53 AM 30.0°F 28.9°F 96% 30.29 in 4.0 miles Calm Calm - N/A   Clear
9:53 AM 37.0°F 33.1°F 86% 30.31 in 4.0 miles Calm Calm - N/A   Clear
10:53 AM 43.0°F 36.0°F 76% 30.31 in 5.0 miles Calm Calm - N/A   Haze
11:53 AM 46.9°F 36.0°F 66% 30.29 in 5.0 miles North 3.5 mph - N/A   Haze
12:53 PM 50.0°F 37.0°F 61% 30.27 in 5.0 miles NNE 3.5 mph - N/A   Haze
1:53 PM 54.0°F 39.0°F 57% 30.27 in 5.0 miles North 4.6 mph - N/A   Haze
2:53 PM 55.9°F 39.0°F 53% 30.26 in 5.0 miles NNE 3.5 mph - N/A   Haze
3:53 PM 53.1°F 39.9°F 61% 30.26 in 5.0 miles NNE 5.8 mph - N/A   Haze
4:53 PM 46.0°F 39.0°F 76% 30.27 in 4.0 miles Calm Calm - N/A   Haze
5:53 PM 39.0°F 37.0°F 93% 30.29 in 6.0 miles Calm Calm - N/A   Clear
6:53 PM 37.0°F 33.1°F 86% 30.29 in 5.0 miles East 4.6 mph - N/A   Clear
7:53 PM 37.9°F 33.1°F 83% 30.30 in 6.0 miles East 4.6 mph - N/A   Haze
8:53 PM 36.0°F 33.1°F 89% 30.31 in 6.0 miles Calm Calm - N/A   Clear
9:53 PM 36.0°F 33.1°F 89% 30.32 in 5.0 miles East 5.8 mph - N/A   Clear
10:53 PM 30.0°F 28.9°F 96% 30.32 in 5.0 miles Calm Calm - N/A   Clear
11:53 PM 30.0°F 28.0°F 92% 30.34 in 5.0 miles North 3.5 mph - N/A   Clear
Moon Phase
Jan. 19 Jan. 26 Feb. 03 Feb. 10 Feb. 17
Sunrise:07:59 AM (PST) Moon Rise:11:33 AM (PST)1/19
Sunset:04:59 PM (PST) Moon Set:01:33 AM (PST)1/19

Copyright © 2014 The Weather Underground, Inc.